Location: Les Chemineaux
(47.3024°N, 1.5104°E)
Time: 06:58:36
(UTC+00:00)

Lacrosse 5 rocket - Pass Details

Date: 19 May 2025
Orbit: 419 x 515 km, 57.0° (Epoch: 18 June)

Event Time Altitude Azimuth Distance (km) Brightness Sun altitude
Rises 21:19:29 0° 305° (NW) 2,484 6.1 -14.7°
Reaches altitude 10° 21:21:41 10° 301° (WNW) 1,589 4.8 -14.9°
Maximum altitude 21:25:09 53° 223° (SW) 548 1.2 -15.2°
Enters shadow 21:26:23 33° 164° (SSE) 758 1.5 -15.3°
